Location: Eschertshofen
(49.3064°N, 11.5756°E)
Time: 23:24:29
(UTC+00:00)

Cosmos 2279 Rocket - Pass Details

Date: 18 September 2020
Orbit: 963 x 979 km, 82.9° (Epoch: 30 October)

Event Time Altitude Azimuth Distance (km) Brightness Sun altitude
Exits shadow 20:20:51 76° 117° (ESE) 1,011 3.8 -27.9°
Maximum altitude 20:21:03 77° 96° (E) 1,008 3.8 -27.9°
Drops below altitude 10° 20:27:20 10° 12° (NNE) 2,743 6.7 -28.7°
Sets 20:29:51 0° 11° (N) 3,696 7.4 -29.0°
